User: anonymous   Login
Location: Table Mountain
(47.2500°N, 120.5778°W)
Time: 00:50:16
(UTC-08:00)
Language:

KKS-1 - Orbit

View from above orbital plane
View from above orbital plane
View from above satellite
View from above satellite

Ground track
Ground track

The orbit data is extracted from the following two-line orbital elements,

1 33499U 09002H   19052.21447391  .00000067  00000-0  17993-4 0  9993
2 33499  98.3546 247.1228 0008452 214.3236 145.7427 14.75407922541901
Epoch (UTC): 21 February 2019 05:08:50
Eccentricity: 0.0008452
inclination: 98.3546°
perigee height: 638 km
apogee height: 650 km
right ascension of ascending node: 247.1228°
argument of perigee: 214.3236°
revolutions per day: 14.75407922
mean anomaly at epoch: 145.7427°
orbit number at epoch: 54190

The dashed part of the orbit path shows where the satellite is in the earth's shadow,  

DLR